STARLINK-32941, 63119

Orbit data source: Space-Track

STARLINK-32941, 63119 is a payload satellite owned by SpaceX/Seattle (US) in LEO that was launched on Thu, 27 Feb 2025 UTC via an FALCON 9 launch vehicle from the Air Force Eastern Test Range (AFETR). Payload-class satellites include a variety of spacecraft equipped with specific instruments for various scientific and technological missions. These include communications satellites like Starlink; space stations such as the ISS; scientific satellites like the Hubble; Earth observation satellites from companies like Planet Labs, Umbra, and HawkEye 360; GPS; miniature CubeSats for education and research; and military/defense satellites.

Loading next visibility...
Identifier
63119, 2025-039R
Orbit
LEO
Country
Flag of USUS
Related business
Manufacturer
SpaceX/Seattle
Mission
Operational Commercial Communications
Bus & Motor
STARLINK V2M, Unknown motor
Mass
730 kg wet, ~700 kg dry
Launch date (UTC)
2025-02-27 (1 year ago)
Launch vehicle
FALCON 9
Launch site
Air Force Eastern Test Range (AFETR)
Object type
Payload
Rocket body
Debris
Shape & HBR
Box + 2 Pan, 17.7 m
Radar Cross Section
33.884 m², Large (>1 m²)

Expand to show TLE details & history
Last TLE update: 12 hours ago

TLE from 12 hours ago
0 STARLINK-32941
1 63119U 25039R   26207.54144110  .00022489  00000-0  82375-3 0  9999
2 63119  43.0017 297.2489 0001502 288.7444  71.3245 15.27600210 79432
Epoch: 2026-07-26T12:59Z
TLE epoch observation values (Epoch: 2026-07-26T12:59:40.511Z)
Latitude
0.00003°
Longitude
158.09225°
Altitude
482.434 km
Speed
7.626 km/s
True Right ascension
19h 48m 59s
True Declination
0° 00' 00"
Sunlit
Object was in full shadow at epoch
Visualization orbit readout
Latitude
Unknown
Longitude
Unknown
Altitude
Unknown
Speed
Unknown
Apparent Right ascension
Unknown
Apparent Declination
Unknown
Sunlit
N/A
Visualization observer readout
Local Sidereal Time
14:32:15
Azimuth
Unknown
Elevation
Unknown
Doppler factor
Unknown
Orbital elements
Apogee altitude
485.964 km
Perigee altitude
483.903 km
Semi-major axis
6,863.07 km
Eccentricity
0.00015
Inclination
43.0017°
RAAN
297.2489°
Arg. of periapsis
288.7444°
True anomaly
71.34081°
Mean anomaly
71.3245°
Eccentric anomaly
71.33265°
Mean motion
3.81738 °/min
Orbital period
94.31 mins
BSTAR
0.00082375
Loading maneuver chart data...
Computing Atmospheric mass density...
Loading historical data...
Loading historical data...
Loading historical data...
Loading historical data...
Loading historical data...
Loading historical data...
Loading historical data...

Documentation

Showing up to 5 results
|